Marshall, MN

11:53 AM CDT on June 27, 2017 (GMT -0500)
Marshall Municipal-Ryan

Weather History for KMML - November, 2012

Change the Weather History Date:

Sunday, November 18, 2012

  Actual Average Record
Temperature  
Mean Temperature 50 °F -  
Max Temperature 60 °F 39 °F 66 °F (1999)
Min Temperature 41 °F 23 °F -3 °F (1959)
Degree Days  
Heating Degree Days 14    
Moisture  
Dew Point 33 °F    
Average Humidity 52    
Maximum Humidity 62    
Minimum Humidity 42    
Precipitation  
Precipitation 0.00 in - - ()
Sea Level Pressure  
Sea Level Pressure 29.99 in    
Wind  
Wind Speed 17 mph (South)    
Max Wind Speed 25 mph    
Max Gust Speed 31 mph    
Visibility 10 miles    
Events      
Averages and records for this station are not official NWS values.
T = Trace of Precipitation, MM = Missing Value Source: NWS Daily Summary

Daily Weather History Graph

Daily Weather History Graph

Search for Another Location

Airport or City:

Trip Planner

Search our weather history database for the weather conditions in past years. The results will help you decide how hot, cold, wet, or windy it might be!

Date:

Astronomy

Nov. 18, 2012 Rise Set
Actual Time 7:24 AM CST 4:52 PM CST
Civil Twilight 6:52 AM CST 5:24 PM CST
Nautical Twilight 6:16 AM CST 5:59 PM CST
Astronomical Twilight 5:42 AM CST 6:34 PM CST
Moon 11:49 AM CST (11/18) 10:16 PM CST (11/18)
Length of Visible Light 10h 32m
Length of Day
9h 28m
Waxing Crescent, 30% of the Moon is Illuminated
Nov 18
Waxing Crescent
Nov 20
First Quarter
Nov 28
Full
Dec 6
Last Quarter
Dec 13
New

Hourly Weather History & Observations

Time (CST) Temp. Windchill Dew Point Humidity Pressure Visibility Wind Dir Wind Speed Gust Speed Precip Events Conditions
12:15 AM 46.4 °F 40.4 °F 32.0 °F 57% 30.04 in 10.0 mi South 13.8 mph 21.9 mph N/A   Clear
12:35 AM 46.4 °F 39.8 °F 32.0 °F 57% 30.03 in 10.0 mi South 16.1 mph 25.3 mph N/A   Clear
12:55 AM 46.4 °F 39.0 °F 33.8 °F 62% 30.02 in 10.0 mi South 19.6 mph 25.3 mph N/A   Clear
1:15 AM 46.4 °F 38.3 °F 32.0 °F 57% 30.02 in 10.0 mi South 23.0 mph 28.8 mph N/A   Clear
1:55 AM 44.6 °F 37.8 °F 32.0 °F 61% 30.03 in 10.0 mi South 15.0 mph - N/A   Clear
2:15 AM 44.6 °F 38.8 °F 32.0 °F 61% 30.04 in 10.0 mi South 11.5 mph 18.4 mph N/A   Clear
2:35 AM 44.6 °F 38.4 °F 30.2 °F 57% 30.04 in 10.0 mi South 12.7 mph 20.7 mph N/A   Clear
2:55 AM 44.6 °F 37.8 °F 30.2 °F 57% 30.04 in 10.0 mi South 15.0 mph 19.6 mph N/A   Clear
3:15 AM 44.6 °F 37.4 °F 30.2 °F 57% 30.03 in 10.0 mi South 16.1 mph - N/A   Clear
3:35 AM 44.6 °F 36.6 °F 30.2 °F 57% 30.02 in 10.0 mi South 19.6 mph 26.5 mph N/A   Clear
3:55 AM 44.6 °F 36.9 °F 30.2 °F 57% 30.01 in 10.0 mi SSW 18.4 mph - N/A   Clear
4:15 AM 44.6 °F 35.9 °F 30.2 °F 57% 30.01 in 10.0 mi SSW 23.0 mph 26.5 mph N/A   Clear
4:35 AM 44.6 °F 36.1 °F 30.2 °F 57% 30.01 in 10.0 mi SSW 21.9 mph - N/A   Clear
4:55 AM 44.6 °F 36.6 °F 30.2 °F 57% 30.00 in 10.0 mi SSW 19.6 mph 27.6 mph N/A   Clear
5:15 AM 44.6 °F 36.6 °F 30.2 °F 57% 30.00 in 10.0 mi SSW 19.6 mph 26.5 mph N/A   Clear
5:35 AM 44.6 °F 36.6 °F 30.2 °F 57% 30.01 in 10.0 mi SSW 19.6 mph - N/A   Clear
5:55 AM 44.6 °F 36.9 °F 30.2 °F 57% 30.01 in 10.0 mi SSW 18.4 mph 25.3 mph N/A   Clear
6:15 AM 42.8 °F 34.0 °F 28.4 °F 57% 30.00 in 10.0 mi SSW 20.7 mph - N/A   Clear
6:35 AM 42.8 °F 34.0 °F 28.4 °F 57% 30.00 in 10.0 mi SSW 20.7 mph 26.5 mph N/A   Clear
6:55 AM 41.0 °F 32.2 °F 28.4 °F 61% 30.00 in 10.0 mi SSW 18.4 mph - N/A   Clear
7:15 AM 41.0 °F 32.2 °F 28.4 °F 61% 30.00 in 10.0 mi SSW 18.4 mph - N/A   Clear
7:35 AM 41.0 °F 32.5 °F 28.4 °F 61% 30.00 in 10.0 mi SSW 17.3 mph - N/A   Clear
7:55 AM 42.8 °F 34.3 °F 28.4 °F 57% 29.99 in 10.0 mi SSW 19.6 mph 23.0 mph N/A   Clear
8:15 AM 42.8 °F 33.8 °F 28.4 °F 57% 30.00 in 10.0 mi SSW 21.9 mph 27.6 mph N/A   Clear
8:35 AM 44.6 °F 36.1 °F 28.4 °F 53% 30.00 in 10.0 mi SSW 21.9 mph 28.8 mph N/A   Clear
8:55 AM 44.6 °F 35.5 °F 28.4 °F 53% 29.99 in 10.0 mi SSW 25.3 mph 29.9 mph N/A   Clear
9:15 AM 46.4 °F 38.1 °F 28.4 °F 50% 29.99 in 10.0 mi SSW 24.2 mph 29.9 mph N/A   Clear
9:35 AM 48.2 °F - 30.2 °F 50% 29.99 in 10.0 mi SSW 25.3 mph 29.9 mph N/A   Clear
9:55 AM 48.2 °F - 30.2 °F 50% 30.00 in 10.0 mi SW 24.2 mph 31.1 mph N/A   Clear
10:15 AM 50.0 °F - 32.0 °F 50% 30.00 in 10.0 mi SSW 21.9 mph - N/A   Clear
10:35 AM 51.8 °F - 32.0 °F 47% 30.00 in 10.0 mi SSW 20.7 mph 26.5 mph N/A   Clear
10:55 AM 53.6 °F - 33.8 °F 47% 30.01 in 10.0 mi South 11.5 mph - N/A   Clear
11:15 AM 55.4 °F - 33.8 °F 44% 30.01 in 10.0 mi South 13.8 mph - N/A   Clear
11:35 AM 55.4 °F - 33.8 °F 44% 30.00 in 10.0 mi South 13.8 mph - N/A   Clear
11:55 AM 55.4 °F - 35.6 °F 47% 29.99 in 10.0 mi South 15.0 mph - N/A   Clear
12:15 PM 57.2 °F - 35.6 °F 44% 29.99 in 10.0 mi South 15.0 mph 18.4 mph N/A   Clear
12:35 PM 55.4 °F - 33.8 °F 44% 29.98 in 10.0 mi South 16.1 mph - N/A   Clear
12:55 PM 57.2 °F - 35.6 °F 44% 29.97 in 10.0 mi South 12.7 mph - N/A   Clear
1:15 PM 57.2 °F - 35.6 °F 44% 29.98 in 10.0 mi South 13.8 mph - N/A   Clear
1:35 PM 59.0 °F - 35.6 °F 42% 29.97 in 10.0 mi South 17.3 mph - N/A   Scattered Clouds
2:15 PM 60.8 °F - 37.4 °F 42% 29.96 in 10.0 mi South 16.1 mph 20.7 mph N/A   Mostly Cloudy
2:35 PM 60.8 °F - 37.4 °F 42% 29.96 in 10.0 mi South 17.3 mph 20.7 mph N/A   Partly Cloudy
2:55 PM 57.2 °F - 35.6 °F 44% 29.96 in 10.0 mi SSE 12.7 mph - N/A   Clear
3:15 PM 55.4 °F - 35.6 °F 47% 29.96 in 10.0 mi SSE 10.4 mph - N/A   Clear
3:35 PM 57.2 °F - 37.4 °F 48% 29.96 in 10.0 mi South 15.0 mph - N/A   Clear
3:55 PM 57.2 °F - 35.6 °F 44% 29.97 in 10.0 mi South 13.8 mph - N/A   Clear
4:15 PM 57.2 °F - 35.6 °F 44% 29.96 in 10.0 mi South 13.8 mph - N/A   Scattered Clouds
4:35 PM 57.2 °F - 35.6 °F 44% 29.96 in 10.0 mi South 12.7 mph - N/A   Partly Cloudy
4:55 PM 55.4 °F - 35.6 °F 47% 29.96 in 10.0 mi SSE 10.4 mph - N/A   Clear
5:15 PM 53.6 °F - 35.6 °F 51% 29.96 in 10.0 mi SSE 9.2 mph - N/A   Clear
5:35 PM 51.8 °F - 35.6 °F 54% 29.97 in 10.0 mi SSE 10.4 mph - N/A   Clear
5:55 PM 51.8 °F - 35.6 °F 54% 29.97 in 10.0 mi SSE 10.4 mph - N/A   Clear
6:15 PM 50.0 °F - 33.8 °F 54% 29.97 in 10.0 mi SSE 10.4 mph - N/A   Clear
6:35 PM 51.8 °F - 35.6 °F 54% 29.97 in 10.0 mi SSE 11.5 mph 17.3 mph N/A   Clear
6:55 PM 53.6 °F - 33.8 °F 47% 29.97 in 10.0 mi South 13.8 mph 17.3 mph N/A   Clear
7:15 PM 53.6 °F - 33.8 °F 47% 29.97 in 10.0 mi South 19.6 mph 23.0 mph N/A   Clear
7:35 PM 51.8 °F - 33.8 °F 50% 29.97 in 10.0 mi South 20.7 mph 24.2 mph N/A   Clear
7:55 PM 51.8 °F - 33.8 °F 50% 29.97 in 10.0 mi South 20.7 mph - N/A   Clear
8:15 PM 51.8 °F - 33.8 °F 50% 29.97 in 10.0 mi South 20.7 mph 26.5 mph N/A   Clear
8:35 PM 51.8 °F - 33.8 °F 50% 29.97 in 10.0 mi South 20.7 mph 27.6 mph N/A   Clear
8:55 PM 51.8 °F - 33.8 °F 50% 29.97 in 10.0 mi South 20.7 mph 27.6 mph N/A   Clear
9:15 PM 51.8 °F - 33.8 °F 50% 29.97 in 10.0 mi South 19.6 mph 27.6 mph N/A   Clear
9:35 PM 51.8 °F - 33.8 °F 50% 29.97 in 10.0 mi South 19.6 mph 25.3 mph N/A   Clear
9:55 PM 50.0 °F - 33.8 °F 54% 29.97 in 10.0 mi South 18.4 mph 26.5 mph N/A   Clear
10:35 PM 50.0 °F - 33.8 °F 54% 29.96 in 10.0 mi South 18.4 mph 25.3 mph N/A   Clear
10:55 PM 50.0 °F - 33.8 °F 54% 29.96 in 10.0 mi South 16.1 mph 19.6 mph N/A   Clear
11:15 PM 48.2 °F - 33.8 °F 58% 29.96 in 10.0 mi SSE 13.8 mph - N/A   Clear
11:55 PM 48.2 °F - 33.8 °F 58% 29.97 in 10.0 mi South 12.7 mph 17.3 mph N/A   Clear